Date String (YYYY-MM-DD hh:mm:ss) UTC,Instrument flags,absolute air pressure of the measurement (hPa),sample flow rate (lpm),inlet stack bypass flow (lpm),air temperature of the measurement (°C),ambient temperature measured by the external sensor (°C),aerosol sample conditioner tube jacket temperature (°C),OPC LED temperature (°C),internal box temperature (°C),relative humidity of the measurement (%),span deviation,mass concentration of particles derived from Lorenz-Mie calculation of OPC scattering (μg/m³),mass concentration of particles derived from Lorenz-Mie calculation of OPC scattering (μg/m³),mass concentration of particles derived from Lorenz-Mie calculation of OPC scattering (μg/m³)
DateTimeUTC,F1_M11,P_M11,Q1_M11,Q2_M11,T1_M11,T2_M11,T3_M11,T4_M11,T5_M11,U1_M11,ZSPAN_M11,X0_M11,X2_M11,X1_M11
2023-09-17 22:00:00,SystemResetWarning,0832.2,5.01,000.00,027.7,026.0,000.0,036.0,029.3,16.8,0000.0,0005.73,0003.43,0003.10
2023-09-17 22:01:00,SystemResetWarning,0832.2,4.98,000.00,027.7,026.3,000.0,036.0,029.4,16.9,0000.0,0005.55,0003.44,0003.10
2023-09-17 22:02:00,SystemResetWarning,0832.2,5.00,000.00,027.8,026.6,000.0,036.0,029.5,16.9,0000.0,0005.33,0003.43,0003.10
2023-09-17 22:03:00,SystemResetWarning,0832.2,5.01,000.00,027.8,026.8,000.0,036.0,029.5,16.5,0000.0,0005.38,0003.42,0003.10
2023-09-17 22:04:00,SystemResetWarning,0832.1,4.99,000.00,027.8,026.2,000.0,036.0,029.4,16.5,0000.0,0005.49,0003.43,0003.10
2023-09-17 22:05:00,SystemResetWarning,0832.1,5.00,000.00,027.7,024.6,000.0,036.0,029.0,17.1,0000.0,0005.58,0003.44,0003.10
2023-09-17 22:06:00,SystemResetWarning,0832.1,5.01,000.00,027.6,024.1,000.0,035.9,028.8,17.0,0000.0,0005.61,0003.43,0003.10
2023-09-17 22:07:00,SystemResetWarning,0832.0,5.00,000.00,027.6,024.3,000.0,035.9,028.9,17.8,0000.0,0005.95,0003.41,0003.09
2023-09-17 22:08:00,SystemResetWarning,0832.1,5.00,000.00,027.5,024.7,000.0,035.9,028.9,17.4,0000.0,0005.84,0003.40,0003.10
2023-09-17 22:09:00,SystemResetWarning,0832.0,4.99,000.00,027.5,025.2,000.0,035.9,029.0,17.4,0000.0,0005.83,0003.40,0003.10
2023-09-17 22:10:00,SystemResetWarning,0832.0,5.00,000.00,027.5,025.5,000.0,035.9,029.1,17.0,0000.0,0005.68,0003.39,0003.10
2023-09-17 22:11:00,SystemResetWarning,0832.0,5.00,000.00,027.6,025.9,000.0,035.9,029.2,17.1,0000.0,0005.79,0003.42,0003.11
2023-09-17 22:12:00,SystemResetWarning,0832.1,5.01,000.00,027.6,026.2,000.0,036.0,029.3,16.4,0000.0,0005.79,0003.42,0003.12
2023-09-17 22:13:00,SystemResetWarning,0832.0,5.00,000.00,027.7,026.5,000.0,036.0,029.4,16.4,0000.0,0005.94,0003.44,0003.13
2023-09-17 22:14:00,SystemResetWarning,0832.1,5.00,000.00,027.7,026.7,000.0,036.0,029.5,16.6,0000.0,0005.84,0003.43,0003.12
2023-09-17 22:15:00,SystemResetWarning,0832.0,5.00,000.00,027.8,026.9,000.0,036.0,029.6,16.3,0000.0,0005.92,0003.42,0003.11
2023-09-17 22:16:00,SystemResetWarning,0832.1,4.99,000.00,027.9,026.7,000.0,036.0,029.5,16.1,0000.0,0005.96,0003.44,0003.11
2023-09-17 22:17:00,SystemResetWarning,0832.0,5.00,000.00,027.8,025.1,000.0,036.0,029.0,16.8,0000.0,0006.13,0003.43,0003.11
2023-09-17 22:18:00,SystemResetWarning,0832.0,5.01,000.00,027.6,024.1,000.0,035.9,028.8,17.0,0000.0,0005.66,0003.44,0003.11
2023-09-17 22:19:00,SystemResetWarning,0831.9,5.01,000.00,027.6,024.2,000.0,035.9,028.9,16.9,0000.0,0005.83,0003.46,0003.09
2023-09-17 22:20:00,SystemResetWarning,0831.9,4.99,000.00,027.5,024.6,000.0,035.9,028.9,16.4,0000.0,0006.02,0003.49,0003.07
2023-09-17 22:21:00,SystemResetWarning,0831.9,4.99,000.00,027.5,025.0,000.0,035.9,029.0,16.1,0000.0,0005.93,0003.46,0003.05
2023-09-17 22:22:00,SystemResetWarning,0831.9,5.00,000.00,027.5,025.4,000.0,035.9,029.1,17.1,0000.0,0005.86,0003.45,0003.04
2023-09-17 22:23:00,SystemResetWarning,0831.9,5.01,000.00,027.6,025.8,000.0,035.9,029.2,16.3,0000.0,0006.10,0003.42,0003.02
2023-09-17 22:24:00,SystemResetWarning,0831.9,5.01,000.00,027.6,026.1,000.0,036.0,029.3,16.8,0000.0,0007.66,0003.42,0002.99
2023-09-17 22:25:00,SystemResetWarning,0831.9,5.00,000.00,027.7,026.4,000.0,036.0,029.4,16.6,0000.0,0007.80,0003.41,0002.97
2023-09-17 22:26:00,SystemResetWarning,0831.9,4.99,000.00,027.7,026.6,000.0,036.0,029.5,16.1,0000.0,0007.78,0003.41,0002.97
2023-09-17 22:27:00,SystemResetWarning,0831.9,4.99,000.00,027.8,026.8,000.0,036.0,029.6,16.8,0000.0,0007.98,0003.41,0002.98
2023-09-17 22:28:00,SystemResetWarning,0831.9,4.99,000.00,027.9,026.8,000.0,036.0,029.6,16.9,0000.0,0007.92,0003.42,0002.98
2023-09-17 22:29:00,SystemResetWarning,0831.9,5.00,000.00,027.8,025.5,000.0,036.0,029.2,16.9,0000.0,0007.87,0003.41,0002.96
2023-09-17 22:30:00,SystemResetWarning,0831.8,5.01,000.00,027.7,024.2,000.0,036.0,028.8,17.1,0000.0,0007.77,0003.38,0002.95
2023-09-17 22:31:00,SystemResetWarning,0831.8,5.01,000.00,027.6,024.2,000.0,035.9,028.9,16.9,0000.0,0008.49,0003.33,0002.94
2023-09-17 22:32:00,SystemResetWarning,0831.8,5.01,000.00,027.5,024.5,000.0,035.9,028.9,17.7,0000.0,0009.26,0003.32,0002.94
2023-09-17 22:33:00,SystemResetWarning,0831.8,5.00,000.00,027.5,024.9,000.0,035.9,029.0,17.6,0000.0,0009.27,0003.31,0002.93
2023-09-17 22:34:00,SystemResetWarning,0831.8,5.00,000.00,027.5,025.3,000.0,035.9,029.1,17.2,0000.0,0009.25,0003.30,0002.92
2023-09-17 22:35:00,SystemResetWarning,0831.9,5.01,000.00,027.6,025.7,000.0,035.9,029.2,16.4,0000.0,0008.77,0003.29,0002.92
2023-09-17 22:36:00,SystemResetWarning,0831.9,5.00,000.00,027.6,026.1,000.0,036.0,029.3,16.9,0000.0,0008.52,0003.33,0002.95
2023-09-17 22:37:00,SystemResetWarning,0831.9,5.00,000.00,027.7,026.3,000.0,036.0,029.4,17.0,0000.0,0008.47,0003.31,0002.94
2023-09-17 22:38:00,SystemResetWarning,0831.9,5.00,000.00,027.7,026.6,000.0,036.0,029.5,16.4,0000.0,0008.26,0003.27,0002.92
2023-09-17 22:39:00,SystemResetWarning,0831.8,5.00,000.00,027.8,026.8,000.0,036.0,029.6,16.7,0000.0,0007.99,0003.23,0002.89
2023-09-17 22:40:00,SystemResetWarning,0831.8,4.99,000.00,027.8,026.6,000.0,036.0,029.6,17.2,0000.0,0007.97,0003.22,0002.89
2023-09-17 22:41:00,SystemResetWarning,0831.8,4.99,000.00,027.8,025.1,000.0,036.0,029.1,16.9,0000.0,0007.95,0003.22,0002.90
2023-09-17 22:42:00,SystemResetWarning,0831.7,5.01,000.00,027.6,024.1,000.0,035.9,028.8,16.4,0000.0,0007.38,0003.22,0002.90
2023-09-17 22:43:00,SystemResetWarning,0832.0,5.01,000.00,027.6,024.3,000.0,035.9,028.9,16.9,0000.0,0005.86,0003.22,0002.90
2023-09-17 22:44:00,SystemResetWarning,0832.0,5.00,000.00,027.5,024.6,000.0,035.9,028.9,17.5,0000.0,0005.46,0003.24,0002.91
2023-09-17 22:45:00,SystemResetWarning,0831.8,5.00,000.00,027.5,025.0,000.0,035.9,029.0,17.6,0000.0,0005.55,0003.27,0002.92
2023-09-17 22:46:00,SystemResetWarning,0831.8,5.00,000.00,027.6,025.4,000.0,035.9,029.1,16.6,0000.0,0004.97,0003.26,0002.94
2023-09-17 22:47:00,SystemResetWarning,0831.8,4.99,000.00,027.6,025.8,000.0,035.9,029.2,16.6,0000.0,0004.29,0003.25,0002.94
2023-09-17 22:48:00,SystemResetWarning,0831.8,4.99,000.00,027.7,026.1,000.0,036.0,029.3,16.8,0000.0,0004.34,0003.25,0002.94
2023-09-17 22:49:00,SystemResetWarning,0831.8,5.00,000.00,027.7,026.4,000.0,036.0,029.4,17.3,0000.0,0004.54,0003.27,0002.96
2023-09-17 22:50:00,SystemResetWarning,0831.8,5.01,000.00,027.8,026.7,000.0,036.0,029.5,17.1,0000.0,0004.65,0003.29,0002.99
2023-09-17 22:51:00,SystemResetWarning,0831.8,5.00,000.00,027.8,026.9,000.0,036.0,029.6,16.6,0000.0,0004.73,0003.30,0003.00
2023-09-17 22:52:00,SystemResetWarning,0831.8,4.99,000.00,027.9,026.9,000.0,036.1,029.6,16.3,0000.0,0005.19,0003.32,0003.02
2023-09-17 22:53:00,SystemResetWarning,0832.2,4.99,000.00,027.9,025.5,000.0,036.0,029.3,16.8,0000.0,0006.25,0003.33,0003.05
2023-09-17 22:54:00,SystemResetWarning,0831.7,5.01,000.00,027.7,024.1,000.0,036.0,028.9,16.2,0000.0,0006.52,0003.32,0003.06
2023-09-17 22:55:00,SystemResetWarning,0831.8,5.01,000.00,027.6,024.1,000.0,035.9,028.9,16.2,0000.0,0006.46,0003.31,0003.07
2023-09-17 22:56:00,SystemResetWarning,0831.7,5.00,000.00,027.6,024.5,000.0,035.9,029.0,16.8,0000.0,0006.48,0003.32,0003.08
2023-09-17 22:57:00,SystemResetWarning,0831.7,5.01,000.00,027.6,024.9,000.0,035.9,029.0,17.0,0000.0,0006.54,0003.32,0003.07
2023-09-17 22:58:00,SystemResetWarning,0831.7,5.00,000.00,027.6,025.3,000.0,035.9,029.2,17.8,0000.0,0006.64,0003.33,0003.06
2023-09-17 22:59:00,SystemResetWarning,0831.7,5.00,000.00,027.6,025.7,000.0,036.0,029.3,17.6,0000.0,0006.53,0003.31,0003.05
